Voltar ao catálogo

DUMMY SAT 3/ORION

AtivoCiênciaGEO
NORAD 59479·PAYLOAD·🇷🇺 Russia

Lançado Apr 11, 2024 de Vostochny Cosmodrome

Loading…

TLE

AtualizadoSource: Space-Track

Época: Sep 14, 2026, 15:55 UTC

1 59479U 24069A   26257.66350484 -.00000053  00000-0  00000-0 0  9992
2 59479   2.3556  80.3141 0052442 137.0054 223.9901  0.98607386  8697

Acompanhe DUMMY SAT 3/ORION em tempo real com AllMySat

Download on the App Store